This is the latest recevied weather packets stored in our database for station/object KC4BAM. If no packets are shown the sender has not sent any weather packets the latest 1 day(s).
| Time | Temp. | Humidity | Pressure | Rain* | Wind** | Luminosity | Snow |
|---|---|---|---|---|---|---|---|
| 1778078236 | 10.56° C | 98% | 1003.6 hPa | 0 mm | - | 54 W/m² | - |
| 1778077934 | 10.56° C | 98% | 1003.5 hPa | 0 mm | - | 63 W/m² | - |
| 1778074603 | 10.56° C | 98% | 1003.1 hPa | 0 mm | - | 24 W/m² | - |
| 1778073997 | 10.56° C | 98% | 1003.1 hPa | 0 mm | - | 34 W/m² | - |
| 1778072482 | 10° C | 98% | 1002.7 hPa | 0 mm | - | 29 W/m² | - |
| 1778071273 | 10.56° C | 98% | 1002.7 hPa | 0 mm | - | 20 W/m² | - |
| 1778068248 | 10.56° C | 98% | 1002 hPa | 0 mm | - | 6 W/m² | - |
| 1778067643 | 10.56° C | 97% | 1001.9 hPa | 0 mm | - | 4 W/m² | - |
| 1778064917 | 10.56° C | 97% | 1001.4 hPa | 0 mm | - | 0 W/m² | - |
| 1778062799 | 10.56° C | 97% | 1001.2 hPa | 0 mm | - | 0 W/m² | - |
| 1778062495 | 10.56° C | 97% | 1001 hPa | 0 mm | - | 0 W/m² | - |
| 1778062193 | 10.56° C | 97% | 1000.6 hPa | 0 mm | - | 0 W/m² | - |
| 1778061589 | 10.56° C | 97% | 1000.5 hPa | 0 mm | - | 0 W/m² | - |
| 1778060077 | 10.56° C | 97% | 1000.1 hPa | 0 mm | - | 0 W/m² | - |
| 1778059774 | 10.56° C | 97% | 1000 hPa | 0 mm | - | 0 W/m² | - |
| 1778059472 | 10.56° C | 97% | 1000.2 hPa | 0 mm | - | 0 W/m² | - |
| 1778058563 | 10.56° C | 96% | 1000.3 hPa | 7.87 mm | - | 0 W/m² | - |
| 1778058261 | 10.56° C | 96% | 1000.5 hPa | 4.83 mm | - | 0 W/m² | - |
| 1778055835 | 10.56° C | 96% | 1000.2 hPa | 0 mm | - | 0 W/m² | - |
| 1778055531 | 10.56° C | 96% | 999.9 hPa | 0 mm | - | 0 W/m² | - |
| 1778054623 | 11.11° C | 96% | 1000.1 hPa | 4.83 mm | - | 0 W/m² | - |
| 1778054321 | 11.11° C | 96% | 999.9 hPa | 3.05 mm | - | 0 W/m² | - |
| 1778053412 | 11.67° C | 95% | 999.1 hPa | 0 mm | - | 0 W/m² | - |
| 1778053110 | 11.67° C | 95% | 999.1 hPa | 0 mm | - | 0 W/m² | - |
| 1778052807 | 11.67° C | 95% | 999 hPa | 1.27 mm | - | 0 W/m² | - |
* Rain latest hour (hover to see other rain measurements)
** Current wind speed in m/s (hover to see current wind gust speed)